TimeHST,TemperatureF,Dew PointF,Humidity,Sea Level PressureIn,VisibilityMPH,Wind Direction,Wind SpeedMPH,Gust SpeedMPH,PrecipitationIn,Events,Conditions,WindDirDegrees,DateUTC
12:53 AM,77.0,66.0,69,30.07,10.0,ENE,15.0,-,N/A,,Scattered Clouds,60,2013-08-17 10:53:00
1:53 AM,77.0,66.9,71,30.05,10.0,ENE,15.0,-,N/A,,Partly Cloudy,60,2013-08-17 11:53:00
2:53 AM,77.0,66.0,69,30.04,10.0,NE,16.1,-,N/A,,Scattered Clouds,50,2013-08-17 12:53:00
3:53 AM,77.0,66.0,69,30.03,10.0,NE,13.8,-,N/A,,Overcast,50,2013-08-17 13:53:00
4:53 AM,77.0,66.0,69,30.03,10.0,NE,13.8,-,N/A,,Overcast,40,2013-08-17 14:53:00
5:53 AM,77.0,68.0,74,30.04,10.0,NE,12.7,-,N/A,,Overcast,50,2013-08-17 15:53:00
6:53 AM,77.0,68.0,74,30.05,10.0,NE,16.1,-,N/A,,Mostly Cloudy,40,2013-08-17 16:53:00
7:53 AM,80.1,68.0,67,30.07,10.0,NE,17.3,-,N/A,,Mostly Cloudy,50,2013-08-17 17:53:00
8:53 AM,81.0,66.9,62,30.08,10.0,NE,17.3,-,N/A,,Partly Cloudy,50,2013-08-17 18:53:00
9:53 AM,82.0,68.0,62,30.08,10.0,NE,17.3,-,N/A,,Mostly Cloudy,40,2013-08-17 19:53:00
10:53 AM,82.0,68.0,62,30.07,10.0,NE,16.1,-,N/A,,Mostly Cloudy,50,2013-08-17 20:53:00
11:53 AM,84.0,69.1,61,30.05,10.0,NE,15.0,-,N/A,,Mostly Cloudy,50,2013-08-17 21:53:00
12:53 PM,84.0,69.1,61,30.04,10.0,NE,15.0,-,N/A,,Mostly Cloudy,50,2013-08-17 22:53:00
1:53 PM,82.9,69.1,63,30.02,10.0,NE,16.1,-,N/A,,Mostly Cloudy,50,2013-08-17 23:53:00
2:53 PM,82.0,70.0,67,30.01,10.0,NE,16.1,-,N/A,,Mostly Cloudy,50,2013-08-18 00:53:00
3:03 PM,78.8,69.8,74,30.01,10.0,NE,15.0,-,0.00,Rain,Light Rain,50,2013-08-18 01:03:00
3:26 PM,82.4,68.0,62,30.01,10.0,NE,16.1,-,0.00,,Mostly Cloudy,50,2013-08-18 01:26:00
3:53 PM,84.0,68.0,58,30.00,10.0,NE,16.1,-,0.00,,Clear,50,2013-08-18 01:53:00
4:53 PM,82.0,68.0,62,30.00,10.0,NE,16.1,-,N/A,,Clear,40,2013-08-18 02:53:00
5:53 PM,81.0,68.0,65,30.00,10.0,NE,13.8,-,N/A,,Scattered Clouds,50,2013-08-18 03:53:00
6:53 PM,78.1,66.9,68,30.01,10.0,NE,15.0,-,N/A,,Partly Cloudy,50,2013-08-18 04:53:00
7:53 PM,78.1,68.0,71,30.03,10.0,NE,15.0,-,N/A,,Scattered Clouds,50,2013-08-18 05:53:00
8:53 PM,78.1,66.9,68,30.05,10.0,ENE,17.3,-,N/A,,Partly Cloudy,70,2013-08-18 06:53:00
9:53 PM,78.1,68.0,71,30.06,10.0,ENE,12.7,-,N/A,,Scattered Clouds,60,2013-08-18 07:53:00
10:53 PM,77.0,69.1,76,30.07,10.0,ENE,15.0,-,N/A,,Clear,60,2013-08-18 08:53:00
11:53 PM,77.0,69.1,76,30.06,10.0,ENE,11.5,-,N/A,,Partly Cloudy,60,2013-08-18 09:53:00